Regional Weather Roundup
Issued by NWS Charleston, SC

Current Version | Previous Version | Graphics & Text | Print | Product List | Glossary Off
Versions: 1 2 3 4 5 6 7 8 9 10 11 12 13 14 15 16 17 18 19 20 21 22 23 24 25 26 27 28 29 30 31 32 33 34 35 36 37 38 39 40 41 42 43 44 45 46 47 48 49 50

000
ASUS42 KCHS 311126
RWRCHS

REGIONAL WEATHER ROUNDUP
NATIONAL WEATHER SERVICE CHARLESTON SC
600 AM EST SAT JAN 31 2015

NOTE: "FAIR" INDICATES FEW OR NO CLOUDS BELOW 12,000 FEET WITH NO
SIGNIFICANT WEATHER AND/OR OBSTRUCTIONS TO VISIBILITY.

NOT ALL STATIONS ARE QUALITY CONTROLLED BY THE NATIONAL
WEATHER SERVICE. USE DATA WITH CAUTION...ESPECIALLY
DEWPOINT OBSERVATIONS.

SCZ027-030-031-034>040-042>050-311200-
...SOUTHEAST SOUTH CAROLINA...

CITY           SKY/WX    TMP DP  RH WIND       PRES   REMARKS
N CHARLESTON   CLEAR     31  17  56 NE6       30.34S WCI  25
WATERFRONT PRK   N/A     37 N/A N/A N15         N/A  WCI  28
MOUNT PLEASANT FAIR      34  19  55 N3        30.35R
PINOPOLIS        N/A     37  18  44 NE12      30.25F WCI  30
MONCKS CORNER  FAIR      34  12  40 NE6       30.34S WCI  29
SUMMERVILLE    NOT AVBL
BEAUFORT MCAS  CLEAR     33  24  69 N9        30.35R WCI  25
BEAUFORT ARPT  FAIR      37  28  70 N10       30.34S WCI  30
HILTON HEAD IS NOT AVBL
WALTERBORO     SUNNY     27 N/A N/A CALM      30.36S
ALLENDALE      FAIR      28  25  86 CALM      30.35S

...SOUTHERN MIDLANDS AND PEE DEE...

CITY           SKY/WX    TMP DP  RH WIND       PRES   REMARKS
GEORGETOWN     NOT AVBL
KINGSTREE      NOT AVBL
ORANGEBURG     CLEAR     27  22  81 CALM      30.35R
BARNWELL         N/A     27  21  80 CALM      30.35S
AIKEN          FAIR      25  19  80 CALM      30.38R
MANNING        FAIR      28  21  74 CALM      30.35R
COLUMBIA       FAIR      24  20  84 SW3       30.35R
SUMTER         CLEAR     30  10  43 N2        30.33R
FLORENCE       CLEAR     28  12  51 N5        30.34R WCI  23
MYRTLE BEACH   CLEAR     30  12  47 N6        30.36S WCI  24
N MYRTLE BEACH CLEAR     29  13  51 N5        30.34R WCI  24

$$

GAZ063-065-086>088-099>101-113>116-118-119-134>141-150-311200-
...SOUTHEAST GEORGIA...

CITY           SKY/WX    TMP DP  RH WIND       PRES   REMARKS
SAVANNAH ARPT  CLEAR     32  25  75 CALM      30.35R
HUNTER AAF     CLEAR     36  26  65 N5        30.32R WCI  32
FORT STEWART   CLEAR     33  26  76 N3        30.32S
STATESBORO     CLEAR     27  26  95 CALM      30.34S
SYLVANIA       SUNNY     28  27  94 CALM      30.35S
CLAXTON        FAIR      30  28  93 CALM      30.35R

...CSRA...CENTRAL AND FAR SOUTHEAST GEORGIA...

CITY           SKY/WX    TMP DP  RH WIND       PRES   REMARKS
THOMSON        CLEAR     25  25  99 CALM      30.39S
AUGUSTA-BUSH   CLEAR     24  19  81 CALM      30.35F
AUGUSTA-DANIEL CLEAR     34  17  50 N3        30.34F
SWAINSBORO     FAIR      34  12  40 NE5       30.35R WCI  30
VIDALIA        CLEAR     32  28  86 NE7       30.34R WCI  26
EASTMAN        FAIR      27  27 100 CALM      30.37R
HAZLEHURST     FAIR      34  30  86 NE3       30.32S
ALMA           CLEAR     36  25  64 N3        30.32R
WAYCROSS       CLEAR     37  31  78 NE3       30.32R
JESUP          FAIR      37  30  75 CALM      30.33R
BAXLEY         FAIR      36  28  75 NE3       30.33R
BRUNSWICK      CLEAR     37  30  75 N5        30.32R WCI  34
SAINT SIMONS   CLEAR     38  33  82 N6        30.30S WCI  33

$$

SCZ027-028-034-036>038-045-046-048>050-GAZ119-141-311200-
...LAKE AND SUPPLEMENTAL COASTAL OBSERVATIONS...

STATION/POSITION TIME  TEMP    WIND        PRES    WAVE   SWELL
                       AIR SEA DIR/SP/G            HT/PER HT/PER/DIR
                 (UTC) (F)     (DEG/KT/KT) (MB)    (FT/S) (FT/S/D)
UPR LAKE MARION  NOT AVBL
WINYAH BAY       1000   33     360/  5     1026.0R
LAKE MURRAY      1100   32        CALM     1026.8S
ACE BASIN NERRS  NOT AVBL
FORT PULASKI     1100   42 52   20/  7/ 10 1027.7R
SAPELO ISLAND    1100   42      30/  6     1026.0S

$$

ANZ835-935-AMZ111-154-330-350-352-354-370-450-454-472-311200-
...C-MAN AND BUOY OBSERVATIONS...

STATION/POSITION TIME  TEMP    WIND        PRES    WAVE   SWELL
                       AIR SEA DIR/SP/G            HT/PER HT/PER/DIR
                 (UTC) (F)     (DEG/KT/KT) (MB)    (FT/S) (FT/S/D)
BUOY 41004       1050   47 67   10/ 21/ 25 1025.6R   7/ 7   2/10
BUOY 41008       1050   49 54   40/ 17/ 21 1025.6F   4/ 6
FOLLY BEACH CMAN 1100   38      10/ 14/ 18 1027.7R
CAPERS NEARSHORE 1000   40      20/ 19/ 21   N/A
FRIPP NEARSHORE  1000   43      30/ 16/ 17 1025.8R


STATION/POSITION TIME  TEMP    WIND        PRES    WAVE   SWELL
                       AIR SEA DIR/SP/G            HT/PER HT/PER/DIR
                 (UTC) (F)     (DEG/KT/KT) (MB)    (FT/S) (FT/S/D)
5E ST. MARYS GA  1021      57                N/A     4/ 5
FRYING PAN BUOY  1050   38 62  360/ 19/ 25 1026.5R   7/ 6   2/ 90/ 9
BUOY 41025       1050   36 63  330/ 25/ 31 1023.4R   8/ 6   3/ 20/ 9
CAPE LOOKOUT NC  1100   31     340/ 20/ 23 1025.4S
BUOY 41002       1050   54 71  330/ 21/ 29 1021.5R  13/ 9
BUOY 41010       1020   62 73   10/ 17/ 21 1022.4R
ST AUGUSTINE FL  1100   55      30/ 15/ 17 1025.0F


$$



USA.gov is the U.S. government's official web portal to all federal, state and local government web resources and services.